owner,sensor,date,latitude,longitude,air_temperature,qcFlag 
TCOON,ioos:station:TCOON:003:1,2019-11-11T14:18:00Z,26.8015,-97.4706,22.4,11111222 
TCOON,ioos:station:TCOON:003:1,2019-11-11T15:12:00Z,26.8015,-97.4706,22.1,11111222 
TCOON,ioos:station:TCOON:003:1,2019-11-11T16:12:00Z,26.8015,-97.4706,22.0,11111222 
TCOON,ioos:station:TCOON:003:1,2019-11-11T17:12:00Z,26.8015,-97.4706,23.2,11111222 
TCOON,ioos:station:TCOON:003:1,2019-11-11T18:12:00Z,26.8015,-97.4706,23.8,11111222 
TCOON,ioos:station:TCOON:003:1,2019-11-11T19:12:00Z,26.8015,-97.4706,24.3,11111222 
TCOON,ioos:station:TCOON:003:1,2019-11-11T20:12:00Z,26.8015,-97.4706,24.6,11111222 
TCOON,ioos:station:TCOON:003:1,2019-11-11T21:12:00Z,26.8015,-97.4706,25.4,11111222 
TCOON,ioos:station:TCOON:003:1,2019-11-11T22:12:00Z,26.8015,-97.4706,25.2,11111222 
TCOON,ioos:station:TCOON:003:1,2019-11-11T23:12:00Z,26.8015,-97.4706,24.8,11111222 
TCOON,ioos:station:TCOON:003:1,2019-11-12T00:12:00Z,26.8015,-97.4706,24.3,11111222 
TCOON,ioos:station:TCOON:003:1,2019-11-12T01:12:00Z,26.8015,-97.4706,24.2,11111222 
TCOON,ioos:station:TCOON:003:1,2019-11-12T02:12:00Z,26.8015,-97.4706,14.8,11111222 
TCOON,ioos:station:TCOON:003:1,2019-11-12T03:12:00Z,26.8015,-97.4706,11.5,11111222 
TCOON,ioos:station:TCOON:003:1,2019-11-12T04:12:00Z,26.8015,-97.4706,8.4,11111222 
TCOON,ioos:station:TCOON:003:1,2019-11-12T05:12:00Z,26.8015,-97.4706,7.1,11111222 
TCOON,ioos:station:TCOON:003:1,2019-11-12T06:12:00Z,26.8015,-97.4706,6.1,11111222 
TCOON,ioos:station:TCOON:003:1,2019-11-12T07:12:00Z,26.8015,-97.4706,5.6,11111222 
TCOON,ioos:station:TCOON:003:1,2019-11-12T08:12:00Z,26.8015,-97.4706,4.8,11111222 
TCOON,ioos:station:TCOON:003:1,2019-11-12T09:12:00Z,26.8015,-97.4706,4.2,11111222 
TCOON,ioos:station:TCOON:003:1,2019-11-12T10:12:00Z,26.8015,-97.4706,4.5,11111222 
TCOON,ioos:station:TCOON:003:1,2019-11-12T11:12:00Z,26.8015,-97.4706,3.8,11111222 
TCOON,ioos:station:TCOON:003:1,2019-11-12T12:12:00Z,26.8015,-97.4706,3.5,11111222 
TCOON,ioos:station:TCOON:003:1,2019-11-12T13:12:00Z,26.8015,-97.4706,3.1,11111222 
TCOON,ioos:station:TCOON:003:1,2019-11-12T14:12:00Z,26.8015,-97.4706,2.4,11111222 
TCOON,ioos:station:TCOON:003:1,2019-11-12T15:18:00Z,26.8015,-97.4706,2.5,11111222 
TCOON,ioos:station:TCOON:003:1,2019-11-12T16:18:00Z,26.8015,-97.4706,1.9,11111222 
TCOON,ioos:station:TCOON:003:1,2019-11-12T17:18:00Z,26.8015,-97.4706,1.5,11111222 
TCOON,ioos:station:TCOON:003:1,2019-11-12T18:18:00Z,26.8015,-97.4706,2.0,11111222 
TCOON,ioos:station:TCOON:003:1,2019-11-12T19:18:00Z,26.8015,-97.4706,2.0,11111222 
TCOON,ioos:station:TCOON:003:1,2019-11-12T20:18:00Z,26.8015,-97.4706,2.4,11111222 
TCOON,ioos:station:TCOON:003:1,2019-11-12T21:18:00Z,26.8015,-97.4706,3.0,11111222 
TCOON,ioos:station:TCOON:003:1,2019-11-12T22:12:00Z,26.8015,-97.4706,3.6,11111222 
TCOON,ioos:station:TCOON:003:1,2019-11-12T23:12:00Z,26.8015,-97.4706,3.8,11111222 
TCOON,ioos:station:TCOON:003:1,2019-11-13T00:12:00Z,26.8015,-97.4706,4.0,11111222 
TCOON,ioos:station:TCOON:003:1,2019-11-13T01:12:00Z,26.8015,-97.4706,4.3,11111222 
TCOON,ioos:station:TCOON:003:1,2019-11-13T02:12:00Z,26.8015,-97.4706,4.8,11111222 
TCOON,ioos:station:TCOON:003:1,2019-11-13T03:12:00Z,26.8015,-97.4706,4.9,11111222 
TCOON,ioos:station:TCOON:003:1,2019-11-13T04:12:00Z,26.8015,-97.4706,4.2,11111222 
TCOON,ioos:station:TCOON:003:1,2019-11-13T05:12:00Z,26.8015,-97.4706,4.1,11111222 
TCOON,ioos:station:TCOON:003:1,2019-11-13T06:12:00Z,26.8015,-97.4706,4.8,11111222 
TCOON,ioos:station:TCOON:003:1,2019-11-13T07:12:00Z,26.8015,-97.4706,5.0,11111222 
TCOON,ioos:station:TCOON:003:1,2019-11-13T08:12:00Z,26.8015,-97.4706,4.8,11111222 
TCOON,ioos:station:TCOON:003:1,2019-11-13T09:12:00Z,26.8015,-97.4706,4.7,11111222 
TCOON,ioos:station:TCOON:003:1,2019-11-13T10:12:00Z,26.8015,-97.4706,4.8,11111222 
TCOON,ioos:station:TCOON:003:1,2019-11-13T11:12:00Z,26.8015,-97.4706,4.7,11111222 
TCOON,ioos:station:TCOON:003:1,2019-11-13T12:18:00Z,26.8015,-97.4706,4.6,11111222 
TCOON,ioos:station:TCOON:003:1,2019-11-13T13:12:00Z,26.8015,-97.4706,4.6,11111222 
TCOON,ioos:station:TCOON:003:1,2019-11-13T14:18:00Z,26.8015,-97.4706,4.7,11111222 
TCOON,ioos:station:TCOON:003:1,2019-11-13T15:18:00Z,26.8015,-97.4706,5.2,11111222 
TCOON,ioos:station:TCOON:003:1,2019-11-13T16:18:00Z,26.8015,-97.4706,6.0,11111222 
TCOON,ioos:station:TCOON:003:1,2019-11-13T17:18:00Z,26.8015,-97.4706,6.6,11111222 
TCOON,ioos:station:TCOON:003:1,2019-11-13T18:18:00Z,26.8015,-97.4706,6.8,11111222 
TCOON,ioos:station:TCOON:003:1,2019-11-13T19:18:00Z,26.8015,-97.4706,7.2,11111222 
TCOON,ioos:station:TCOON:003:1,2019-11-13T20:18:00Z,26.8015,-97.4706,6.6,11111222 
TCOON,ioos:station:TCOON:003:1,2019-11-13T21:18:00Z,26.8015,-97.4706,6.3,11111222 
TCOON,ioos:station:TCOON:003:1,2019-11-13T22:18:00Z,26.8015,-97.4706,6.2,11111222 
TCOON,ioos:station:TCOON:003:1,2019-11-13T23:18:00Z,26.8015,-97.4706,6.5,11111222 
TCOON,ioos:station:TCOON:003:1,2019-11-14T00:18:00Z,26.8015,-97.4706,6.4,11111222 
TCOON,ioos:station:TCOON:003:1,2019-11-14T01:18:00Z,26.8015,-97.4706,5.6,11111222 
TCOON,ioos:station:TCOON:003:1,2019-11-14T02:18:00Z,26.8015,-97.4706,5.5,11111222 
TCOON,ioos:station:TCOON:003:1,2019-11-14T03:18:00Z,26.8015,-97.4706,5.8,11111222 
TCOON,ioos:station:TCOON:003:1,2019-11-14T04:18:00Z,26.8015,-97.4706,6.2,11111222 
TCOON,ioos:station:TCOON:003:1,2019-11-14T05:18:00Z,26.8015,-97.4706,6.2,11111222 
TCOON,ioos:station:TCOON:003:1,2019-11-14T06:12:00Z,26.8015,-97.4706,6.4,11111222 
TCOON,ioos:station:TCOON:003:1,2019-11-14T07:12:00Z,26.8015,-97.4706,6.5,11111222 
TCOON,ioos:station:TCOON:003:1,2019-11-14T08:12:00Z,26.8015,-97.4706,5.9,11111222 
TCOON,ioos:station:TCOON:003:1,2019-11-14T09:12:00Z,26.8015,-97.4706,6.1,11111222 
TCOON,ioos:station:TCOON:003:1,2019-11-14T10:12:00Z,26.8015,-97.4706,6.3,11111222 
TCOON,ioos:station:TCOON:003:1,2019-11-14T11:12:00Z,26.8015,-97.4706,6.9,11111222 
TCOON,ioos:station:TCOON:003:1,2019-11-14T12:12:00Z,26.8015,-97.4706,7.1,11111222 
TCOON,ioos:station:TCOON:003:1,2019-11-14T13:12:00Z,26.8015,-97.4706,7.2,11111222 
TCOON,ioos:station:TCOON:003:1,2019-11-14T14:18:00Z,26.8015,-97.4706,7.5,11111222 
TCOON,ioos:station:TCOON:003:1,2019-11-14T15:12:00Z,26.8015,-97.4706,8.1,11111222 
TCOON,ioos:station:TCOON:003:1,2019-11-14T16:18:00Z,26.8015,-97.4706,8.1,11111222 
TCOON,ioos:station:TCOON:003:1,2019-11-14T17:18:00Z,26.8015,-97.4706,8.5,11111222 
TCOON,ioos:station:TCOON:003:1,2019-11-14T18:18:00Z,26.8015,-97.4706,9.4,11111222 
TCOON,ioos:station:TCOON:003:1,2019-11-14T19:12:00Z,26.8015,-97.4706,10.4,11111222 
TCOON,ioos:station:TCOON:003:1,2019-11-14T20:12:00Z,26.8015,-97.4706,10.3,11111222 
TCOON,ioos:station:TCOON:003:1,2019-11-14T21:12:00Z,26.8015,-97.4706,9.8,11111222 
TCOON,ioos:station:TCOON:003:1,2019-11-14T22:12:00Z,26.8015,-97.4706,9.6,11111222 
TCOON,ioos:station:TCOON:003:1,2019-11-14T23:12:00Z,26.8015,-97.4706,9.5,11111222 
TCOON,ioos:station:TCOON:003:1,2019-11-15T00:12:00Z,26.8015,-97.4706,9.3,11111222 
TCOON,ioos:station:TCOON:003:1,2019-11-15T01:12:00Z,26.8015,-97.4706,9.3,11111222 
TCOON,ioos:station:TCOON:003:1,2019-11-15T02:12:00Z,26.8015,-97.4706,9.6,11111222 
TCOON,ioos:station:TCOON:003:1,2019-11-15T03:12:00Z,26.8015,-97.4706,9.2,11111222 
TCOON,ioos:station:TCOON:003:1,2019-11-15T04:12:00Z,26.8015,-97.4706,9.6,11111222 
TCOON,ioos:station:TCOON:003:1,2019-11-15T05:12:00Z,26.8015,-97.4706,9.3,11111222 
TCOON,ioos:station:TCOON:003:1,2019-11-15T06:12:00Z,26.8015,-97.4706,9.3,11111222 
TCOON,ioos:station:TCOON:003:1,2019-11-15T07:12:00Z,26.8015,-97.4706,8.9,11111222 
TCOON,ioos:station:TCOON:003:1,2019-11-15T08:12:00Z,26.8015,-97.4706,8.8,11111222 
TCOON,ioos:station:TCOON:003:1,2019-11-15T09:12:00Z,26.8015,-97.4706,8.4,11111222 
TCOON,ioos:station:TCOON:003:1,2019-11-15T10:12:00Z,26.8015,-97.4706,8.7,11111222 
TCOON,ioos:station:TCOON:003:1,2019-11-15T11:12:00Z,26.8015,-97.4706,8.7,11111222 
TCOON,ioos:station:TCOON:003:1,2019-11-15T12:12:00Z,26.8015,-97.4706,8.2,11111222 
TCOON,ioos:station:TCOON:003:1,2019-11-15T13:12:00Z,26.8015,-97.4706,8.0,11111222 
TCOON,ioos:station:TCOON:003:1,2019-11-15T14:18:00Z,26.8015,-97.4706,7.7,11111222 
TCOON,ioos:station:TCOON:003:1,2019-11-15T15:18:00Z,26.8015,-97.4706,8.6,11111222 
TCOON,ioos:station:TCOON:003:1,2019-11-15T16:18:00Z,26.8015,-97.4706,9.8,11111222 
TCOON,ioos:station:TCOON:003:1,2019-11-15T17:18:00Z,26.8015,-97.4706,11.1,11111222 
TCOON,ioos:station:TCOON:003:1,2019-11-15T18:18:00Z,26.8015,-97.4706,12.3,11111222 
TCOON,ioos:station:TCOON:003:1,2019-11-15T19:18:00Z,26.8015,-97.4706,13.4,11111222 
TCOON,ioos:station:TCOON:003:1,2019-11-15T20:18:00Z,26.8015,-97.4706,14.0,11111222 
TCOON,ioos:station:TCOON:003:1,2019-11-15T21:30:00Z,26.8015,-97.4706,14.3,11111222 
TCOON,ioos:station:TCOON:003:1,2019-11-15T22:12:00Z,26.8015,-97.4706,14.4,11111222 
TCOON,ioos:station:TCOON:003:1,2019-11-15T23:12:00Z,26.8015,-97.4706,14.1,11111222 
TCOON,ioos:station:TCOON:003:1,2019-11-16T00:12:00Z,26.8015,-97.4706,12.9,11111222 
TCOON,ioos:station:TCOON:003:1,2019-11-16T01:12:00Z,26.8015,-97.4706,12.9,11111222 
TCOON,ioos:station:TCOON:003:1,2019-11-16T02:12:00Z,26.8015,-97.4706,12.2,11111222 
TCOON,ioos:station:TCOON:003:1,2019-11-16T03:12:00Z,26.8015,-97.4706,12.0,11111222 
TCOON,ioos:station:TCOON:003:1,2019-11-16T04:12:00Z,26.8015,-97.4706,11.7,11111222 
TCOON,ioos:station:TCOON:003:1,2019-11-16T05:12:00Z,26.8015,-97.4706,11.7,11111222 
TCOON,ioos:station:TCOON:003:1,2019-11-16T06:12:00Z,26.8015,-97.4706,10.6,11111222 
TCOON,ioos:station:TCOON:003:1,2019-11-16T07:12:00Z,26.8015,-97.4706,10.3,11111222 
TCOON,ioos:station:TCOON:003:1,2019-11-16T08:12:00Z,26.8015,-97.4706,9.9,11111222 
TCOON,ioos:station:TCOON:003:1,2019-11-16T09:12:00Z,26.8015,-97.4706,6.6,11111222 
TCOON,ioos:station:TCOON:003:1,2019-11-16T10:12:00Z,26.8015,-97.4706,7.3,11111222 
TCOON,ioos:station:TCOON:003:1,2019-11-16T11:12:00Z,26.8015,-97.4706,7.0,11111222 
TCOON,ioos:station:TCOON:003:1,2019-11-16T12:12:00Z,26.8015,-97.4706,7.0,11111222 
TCOON,ioos:station:TCOON:003:1,2019-11-16T13:12:00Z,26.8015,-97.4706,7.3,11111222 
TCOON,ioos:station:TCOON:003:1,2019-11-16T14:12:00Z,26.8015,-97.4706,9.1,11111222 
TCOON,ioos:station:TCOON:003:1,2019-11-16T15:12:00Z,26.8015,-97.4706,11.6,11111222 
TCOON,ioos:station:TCOON:003:1,2019-11-16T16:12:00Z,26.8015,-97.4706,14.1,11111222 
TCOON,ioos:station:TCOON:003:1,2019-11-16T17:12:00Z,26.8015,-97.4706,15.8,11111222 
TCOON,ioos:station:TCOON:003:1,2019-11-16T18:12:00Z,26.8015,-97.4706,16.9,11111222 
TCOON,ioos:station:TCOON:003:1,2019-11-16T19:12:00Z,26.8015,-97.4706,17.7,11111222 
TCOON,ioos:station:TCOON:003:1,2019-11-16T20:12:00Z,26.8015,-97.4706,18.2,11111222 
TCOON,ioos:station:TCOON:003:1,2019-11-16T21:12:00Z,26.8015,-97.4706,18.3,11111222 
TCOON,ioos:station:TCOON:003:1,2019-11-16T22:12:00Z,26.8015,-97.4706,18.3,11111222 
TCOON,ioos:station:TCOON:003:1,2019-11-16T23:12:00Z,26.8015,-97.4706,18.0,11111222 
TCOON,ioos:station:TCOON:003:1,2019-11-17T00:12:00Z,26.8015,-97.4706,17.1,11111222 
TCOON,ioos:station:TCOON:003:1,2019-11-17T01:12:00Z,26.8015,-97.4706,16.5,11111222 
TCOON,ioos:station:TCOON:003:1,2019-11-17T02:12:00Z,26.8015,-97.4706,16.2,11111222 
TCOON,ioos:station:TCOON:003:1,2019-11-17T03:12:00Z,26.8015,-97.4706,15.3,11111222 
TCOON,ioos:station:TCOON:003:1,2019-11-17T04:12:00Z,26.8015,-97.4706,15.1,11111222 
TCOON,ioos:station:TCOON:003:1,2019-11-17T05:12:00Z,26.8015,-97.4706,15.5,11111222 
TCOON,ioos:station:TCOON:003:1,2019-11-17T06:12:00Z,26.8015,-97.4706,14.4,11111222 
TCOON,ioos:station:TCOON:003:1,2019-11-17T07:12:00Z,26.8015,-97.4706,15.0,11111222 
TCOON,ioos:station:TCOON:003:1,2019-11-17T08:12:00Z,26.8015,-97.4706,15.2,11111222 
TCOON,ioos:station:TCOON:003:1,2019-11-17T09:12:00Z,26.8015,-97.4706,15.2,11111222 
TCOON,ioos:station:TCOON:003:1,2019-11-17T10:12:00Z,26.8015,-97.4706,15.5,11111222 
TCOON,ioos:station:TCOON:003:1,2019-11-17T11:12:00Z,26.8015,-97.4706,15.3,11111222 
TCOON,ioos:station:TCOON:003:1,2019-11-17T12:12:00Z,26.8015,-97.4706,14.7,11111222 
TCOON,ioos:station:TCOON:003:1,2019-11-17T13:12:00Z,26.8015,-97.4706,15.4,11111222 
TCOON,ioos:station:TCOON:003:1,2019-11-17T14:12:00Z,26.8015,-97.4706,16.6,11111222 
TCOON,ioos:station:TCOON:003:1,2019-11-17T15:12:00Z,26.8015,-97.4706,18.2,11111222 
TCOON,ioos:station:TCOON:003:1,2019-11-17T16:12:00Z,26.8015,-97.4706,18.4,11111222 
TCOON,ioos:station:TCOON:003:1,2019-11-17T17:12:00Z,26.8015,-97.4706,19.5,11111222 
TCOON,ioos:station:TCOON:003:1,2019-11-17T18:12:00Z,26.8015,-97.4706,20.6,11111222 
TCOON,ioos:station:TCOON:003:1,2019-11-17T19:12:00Z,26.8015,-97.4706,20.8,11111222 
TCOON,ioos:station:TCOON:003:1,2019-11-17T20:12:00Z,26.8015,-97.4706,21.6,11111222 
TCOON,ioos:station:TCOON:003:1,2019-11-17T21:12:00Z,26.8015,-97.4706,21.5,11111222 
TCOON,ioos:station:TCOON:003:1,2019-11-17T22:12:00Z,26.8015,-97.4706,20.9,11111222 
TCOON,ioos:station:TCOON:003:1,2019-11-17T23:12:00Z,26.8015,-97.4706,20.7,11111222 
TCOON,ioos:station:TCOON:003:1,2019-11-18T00:12:00Z,26.8015,-97.4706,20.0,11111222 
TCOON,ioos:station:TCOON:003:1,2019-11-18T01:12:00Z,26.8015,-97.4706,19.6,11111222 
TCOON,ioos:station:TCOON:003:1,2019-11-18T02:12:00Z,26.8015,-97.4706,19.5,11111222 
TCOON,ioos:station:TCOON:003:1,2019-11-18T03:12:00Z,26.8015,-97.4706,19.2,11111222 
TCOON,ioos:station:TCOON:003:1,2019-11-18T04:12:00Z,26.8015,-97.4706,18.9,11111222 
TCOON,ioos:station:TCOON:003:1,2019-11-18T05:12:00Z,26.8015,-97.4706,18.2,11111222 
TCOON,ioos:station:TCOON:003:1,2019-11-18T06:12:00Z,26.8015,-97.4706,17.9,11111222 
TCOON,ioos:station:TCOON:003:1,2019-11-18T07:12:00Z,26.8015,-97.4706,16.8,11111222 
TCOON,ioos:station:TCOON:003:1,2019-11-18T08:12:00Z,26.8015,-97.4706,16.7,11111222 
TCOON,ioos:station:TCOON:003:1,2019-11-18T09:12:00Z,26.8015,-97.4706,17.1,11111222 
TCOON,ioos:station:TCOON:003:1,2019-11-18T10:12:00Z,26.8015,-97.4706,15.0,11111222 
TCOON,ioos:station:TCOON:003:1,2019-11-18T11:12:00Z,26.8015,-97.4706,15.0,11111222 
TCOON,ioos:station:TCOON:003:1,2019-11-18T12:12:00Z,26.8015,-97.4706,14.7,11111222 
TCOON,ioos:station:TCOON:003:1,2019-11-18T13:12:00Z,26.8015,-97.4706,13.6,11111222 
TCOON,ioos:station:TCOON:003:1,2019-11-18T14:18:00Z,26.8015,-97.4706,12.8,11111222 
TCOON,ioos:station:TCOON:003:1,2019-11-18T15:18:00Z,26.8015,-97.4706,14.4,11111222 
TCOON,ioos:station:TCOON:003:1,2019-11-18T16:18:00Z,26.8015,-97.4706,15.9,11111222 
TCOON,ioos:station:TCOON:003:1,2019-11-18T17:18:00Z,26.8015,-97.4706,18.8,11111222 
TCOON,ioos:station:TCOON:003:1,2019-11-18T18:18:00Z,26.8015,-97.4706,20.7,11111222 
TCOON,ioos:station:TCOON:003:1,2019-11-18T19:18:00Z,26.8015,-97.4706,20.9,11111222 
TCOON,ioos:station:TCOON:003:1,2019-11-18T20:18:00Z,26.8015,-97.4706,21.1,11111222 
TCOON,ioos:station:TCOON:003:1,2019-11-18T21:12:00Z,26.8015,-97.4706,21.4,11111222 
TCOON,ioos:station:TCOON:003:1,2019-11-18T22:12:00Z,26.8015,-97.4706,21.1,11111222 
TCOON,ioos:station:TCOON:003:1,2019-11-18T23:12:00Z,26.8015,-97.4706,20.8,11111222 
TCOON,ioos:station:TCOON:003:1,2019-11-19T00:12:00Z,26.8015,-97.4706,20.0,11111222 
TCOON,ioos:station:TCOON:003:1,2019-11-19T01:12:00Z,26.8015,-97.4706,19.7,11111222 
TCOON,ioos:station:TCOON:003:1,2019-11-19T02:12:00Z,26.8015,-97.4706,19.4,11111222 
TCOON,ioos:station:TCOON:003:1,2019-11-19T03:12:00Z,26.8015,-97.4706,19.4,11111222 
TCOON,ioos:station:TCOON:003:1,2019-11-19T04:12:00Z,26.8015,-97.4706,18.3,11111222 
TCOON,ioos:station:TCOON:003:1,2019-11-19T05:12:00Z,26.8015,-97.4706,18.6,11111222 
TCOON,ioos:station:TCOON:003:1,2019-11-19T06:12:00Z,26.8015,-97.4706,18.7,11111222 
TCOON,ioos:station:TCOON:003:1,2019-11-19T07:12:00Z,26.8015,-97.4706,18.6,11111222 
TCOON,ioos:station:TCOON:003:1,2019-11-19T08:12:00Z,26.8015,-97.4706,16.3,11111222 
TCOON,ioos:station:TCOON:003:1,2019-11-19T09:12:00Z,26.8015,-97.4706,16.3,11111222 
TCOON,ioos:station:TCOON:003:1,2019-11-19T10:12:00Z,26.8015,-97.4706,16.3,11111222 
TCOON,ioos:station:TCOON:003:1,2019-11-19T11:12:00Z,26.8015,-97.4706,15.7,11111222 
TCOON,ioos:station:TCOON:003:1,2019-11-19T12:12:00Z,26.8015,-97.4706,15.6,11111222 
TCOON,ioos:station:TCOON:003:1,2019-11-19T13:12:00Z,26.8015,-97.4706,14.7,11111222 
TCOON,ioos:station:TCOON:003:1,2019-11-19T14:18:00Z,26.8015,-97.4706,15.3,11111222 
TCOON,ioos:station:TCOON:003:1,2019-11-19T15:18:00Z,26.8015,-97.4706,19.7,11111222 
TCOON,ioos:station:TCOON:003:1,2019-11-19T16:18:00Z,26.8015,-97.4706,20.0,11111222 
TCOON,ioos:station:TCOON:003:1,2019-11-19T17:18:00Z,26.8015,-97.4706,20.7,11111222 
TCOON,ioos:station:TCOON:003:1,2019-11-19T18:18:00Z,26.8015,-97.4706,21.2,11111222 
TCOON,ioos:station:TCOON:003:1,2019-11-19T19:18:00Z,26.8015,-97.4706,21.2,11111222 
TCOON,ioos:station:TCOON:003:1,2019-11-19T20:18:00Z,26.8015,-97.4706,21.9,11111222 
TCOON,ioos:station:TCOON:003:1,2019-11-19T21:12:00Z,26.8015,-97.4706,22.4,11111222 
TCOON,ioos:station:TCOON:003:1,2019-11-19T22:12:00Z,26.8015,-97.4706,22.8,11111222 
TCOON,ioos:station:TCOON:003:1,2019-11-19T23:12:00Z,26.8015,-97.4706,22.3,11111222 
TCOON,ioos:station:TCOON:003:1,2019-11-20T00:12:00Z,26.8015,-97.4706,21.3,11111222 
TCOON,ioos:station:TCOON:003:1,2019-11-20T01:12:00Z,26.8015,-97.4706,21.1,11111222 
TCOON,ioos:station:TCOON:003:1,2019-11-20T02:12:00Z,26.8015,-97.4706,21.0,11111222 
TCOON,ioos:station:TCOON:003:1,2019-11-20T03:12:00Z,26.8015,-97.4706,20.8,11111222 
TCOON,ioos:station:TCOON:003:1,2019-11-20T04:12:00Z,26.8015,-97.4706,20.6,11111222 
TCOON,ioos:station:TCOON:003:1,2019-11-20T05:12:00Z,26.8015,-97.4706,20.7,11111222 
TCOON,ioos:station:TCOON:003:1,2019-11-20T06:12:00Z,26.8015,-97.4706,19.7,11111222 
TCOON,ioos:station:TCOON:003:1,2019-11-20T07:12:00Z,26.8015,-97.4706,20.1,11111222 
TCOON,ioos:station:TCOON:003:1,2019-11-20T08:12:00Z,26.8015,-97.4706,20.5,11111222 
TCOON,ioos:station:TCOON:003:1,2019-11-20T09:12:00Z,26.8015,-97.4706,19.4,11111222 
TCOON,ioos:station:TCOON:003:1,2019-11-20T10:12:00Z,26.8015,-97.4706,20.4,11111222 
TCOON,ioos:station:TCOON:003:1,2019-11-20T11:12:00Z,26.8015,-97.4706,20.4,11111222 
TCOON,ioos:station:TCOON:003:1,2019-11-20T12:12:00Z,26.8015,-97.4706,20.3,11111222 
TCOON,ioos:station:TCOON:003:1,2019-11-20T13:12:00Z,26.8015,-97.4706,20.6,11111222 
TCOON,ioos:station:TCOON:003:1,2019-11-20T14:18:00Z,26.8015,-97.4706,21.3,11111222 
TCOON,ioos:station:TCOON:003:1,2019-11-20T15:18:00Z,26.8015,-97.4706,20.1,11111222 
TCOON,ioos:station:TCOON:003:1,2019-11-20T16:18:00Z,26.8015,-97.4706,21.5,11111222 
TCOON,ioos:station:TCOON:003:1,2019-11-20T17:18:00Z,26.8015,-97.4706,22.5,11111222 
TCOON,ioos:station:TCOON:003:1,2019-11-20T18:18:00Z,26.8015,-97.4706,23.8,11111222 
TCOON,ioos:station:TCOON:003:1,2019-11-20T19:18:00Z,26.8015,-97.4706,24.0,11111222 
TCOON,ioos:station:TCOON:003:1,2019-11-20T20:18:00Z,26.8015,-97.4706,23.8,11111222 
TCOON,ioos:station:TCOON:003:1,2019-11-20T21:12:00Z,26.8015,-97.4706,23.9,11111222 
TCOON,ioos:station:TCOON:003:1,2019-11-20T22:12:00Z,26.8015,-97.4706,23.8,11111222 
TCOON,ioos:station:TCOON:003:1,2019-11-20T23:12:00Z,26.8015,-97.4706,23.8,11111222 
TCOON,ioos:station:TCOON:003:1,2019-11-21T00:12:00Z,26.8015,-97.4706,23.2,11111222 
TCOON,ioos:station:TCOON:003:1,2019-11-21T01:12:00Z,26.8015,-97.4706,22.5,11111222 
TCOON,ioos:station:TCOON:003:1,2019-11-21T02:12:00Z,26.8015,-97.4706,22.1,11111222 
TCOON,ioos:station:TCOON:003:1,2019-11-21T03:12:00Z,26.8015,-97.4706,21.5,11111222 
TCOON,ioos:station:TCOON:003:1,2019-11-21T04:12:00Z,26.8015,-97.4706,21.4,11111222 
TCOON,ioos:station:TCOON:003:1,2019-11-21T05:12:00Z,26.8015,-97.4706,21.2,11111222 
TCOON,ioos:station:TCOON:003:1,2019-11-21T06:12:00Z,26.8015,-97.4706,21.2,11111222 
TCOON,ioos:station:TCOON:003:1,2019-11-21T07:12:00Z,26.8015,-97.4706,21.5,11111222 
TCOON,ioos:station:TCOON:003:1,2019-11-21T08:12:00Z,26.8015,-97.4706,21.1,11111222 
TCOON,ioos:station:TCOON:003:1,2019-11-21T09:12:00Z,26.8015,-97.4706,21.1,11111222 
TCOON,ioos:station:TCOON:003:1,2019-11-21T10:12:00Z,26.8015,-97.4706,20.9,11111222 
TCOON,ioos:station:TCOON:003:1,2019-11-21T11:12:00Z,26.8015,-97.4706,20.5,11111222 
TCOON,ioos:station:TCOON:003:1,2019-11-21T12:12:00Z,26.8015,-97.4706,20.9,11111222 
TCOON,ioos:station:TCOON:003:1,2019-11-21T13:12:00Z,26.8015,-97.4706,21.2,11111222 
TCOON,ioos:station:TCOON:003:1,2019-11-21T14:18:00Z,26.8015,-97.4706,21.2,11111222 
TCOON,ioos:station:TCOON:003:1,2019-11-21T15:18:00Z,26.8015,-97.4706,21.8,11111222 
TCOON,ioos:station:TCOON:003:1,2019-11-21T16:18:00Z,26.8015,-97.4706,22.3,11111222 
TCOON,ioos:station:TCOON:003:1,2019-11-21T17:12:00Z,26.8015,-97.4706,23.3,11111222 
TCOON,ioos:station:TCOON:003:1,2019-11-21T18:18:00Z,26.8015,-97.4706,24.0,11111222 
TCOON,ioos:station:TCOON:003:1,2019-11-21T19:12:00Z,26.8015,-97.4706,24.2,11111222 
TCOON,ioos:station:TCOON:003:1,2019-11-21T20:18:00Z,26.8015,-97.4706,24.1,11111222 
TCOON,ioos:station:TCOON:003:1,2019-11-21T21:12:00Z,26.8015,-97.4706,24.0,11111222 
TCOON,ioos:station:TCOON:003:1,2019-11-21T22:12:00Z,26.8015,-97.4706,24.1,11111222 
TCOON,ioos:station:TCOON:003:1,2019-11-21T23:12:00Z,26.8015,-97.4706,24.2,11111222 
TCOON,ioos:station:TCOON:003:1,2019-11-22T00:12:00Z,26.8015,-97.4706,23.6,11111222 
TCOON,ioos:station:TCOON:003:1,2019-11-22T01:12:00Z,26.8015,-97.4706,23.2,11111222 
TCOON,ioos:station:TCOON:003:1,2019-11-22T02:12:00Z,26.8015,-97.4706,22.6,11111222 
TCOON,ioos:station:TCOON:003:1,2019-11-22T03:12:00Z,26.8015,-97.4706,22.3,11111222 
TCOON,ioos:station:TCOON:003:1,2019-11-22T04:12:00Z,26.8015,-97.4706,22.5,11111222 
TCOON,ioos:station:TCOON:003:1,2019-11-22T05:12:00Z,26.8015,-97.4706,22.1,11111222 
TCOON,ioos:station:TCOON:003:1,2019-11-22T06:12:00Z,26.8015,-97.4706,21.9,11111222 
TCOON,ioos:station:TCOON:003:1,2019-11-22T07:12:00Z,26.8015,-97.4706,21.7,11111222 
TCOON,ioos:station:TCOON:003:1,2019-11-22T08:12:00Z,26.8015,-97.4706,21.8,11111222 
TCOON,ioos:station:TCOON:003:1,2019-11-22T09:12:00Z,26.8015,-97.4706,21.5,11111222 
TCOON,ioos:station:TCOON:003:1,2019-11-22T10:12:00Z,26.8015,-97.4706,21.5,11111222 
TCOON,ioos:station:TCOON:003:1,2019-11-22T11:12:00Z,26.8015,-97.4706,21.5,11111222 
TCOON,ioos:station:TCOON:003:1,2019-11-22T12:12:00Z,26.8015,-97.4706,21.4,11111222 
TCOON,ioos:station:TCOON:003:1,2019-11-22T13:12:00Z,26.8015,-97.4706,21.6,11111222 
TCOON,ioos:station:TCOON:003:1,2019-11-22T14:12:00Z,26.8015,-97.4706,22.3,11111222 
TCOON,ioos:station:TCOON:003:1,2019-11-22T15:12:00Z,26.8015,-97.4706,22.9,11111222 
TCOON,ioos:station:TCOON:003:1,2019-11-22T16:12:00Z,26.8015,-97.4706,24.4,11111222 
TCOON,ioos:station:TCOON:003:1,2019-11-22T17:12:00Z,26.8015,-97.4706,25.2,11111222 
TCOON,ioos:station:TCOON:003:1,2019-11-22T18:12:00Z,26.8015,-97.4706,25.0,11111222 
TCOON,ioos:station:TCOON:003:1,2019-11-22T19:12:00Z,26.8015,-97.4706,24.2,11111222 
TCOON,ioos:station:TCOON:003:1,2019-11-22T20:12:00Z,26.8015,-97.4706,23.6,11111222 
TCOON,ioos:station:TCOON:003:1,2019-11-22T21:12:00Z,26.8015,-97.4706,24.3,11111222 
TCOON,ioos:station:TCOON:003:1,2019-11-22T22:12:00Z,26.8015,-97.4706,24.4,11111222 
TCOON,ioos:station:TCOON:003:1,2019-11-22T23:12:00Z,26.8015,-97.4706,24.6,11111222 
TCOON,ioos:station:TCOON:003:1,2019-11-23T00:12:00Z,26.8015,-97.4706,22.4,11111222 
TCOON,ioos:station:TCOON:003:1,2019-11-23T01:12:00Z,26.8015,-97.4706,20.1,11111222 
TCOON,ioos:station:TCOON:003:1,2019-11-23T02:12:00Z,26.8015,-97.4706,19.1,11111222 
TCOON,ioos:station:TCOON:003:1,2019-11-23T03:12:00Z,26.8015,-97.4706,17.9,11111222 
TCOON,ioos:station:TCOON:003:1,2019-11-23T04:12:00Z,26.8015,-97.4706,17.5,11111222 
TCOON,ioos:station:TCOON:003:1,2019-11-23T05:12:00Z,26.8015,-97.4706,17.0,11111222 
TCOON,ioos:station:TCOON:003:1,2019-11-23T06:12:00Z,26.8015,-97.4706,15.5,11111222 
TCOON,ioos:station:TCOON:003:1,2019-11-23T07:12:00Z,26.8015,-97.4706,15.4,11111222 
TCOON,ioos:station:TCOON:003:1,2019-11-23T08:12:00Z,26.8015,-97.4706,15.3,11111222 
TCOON,ioos:station:TCOON:003:1,2019-11-23T09:12:00Z,26.8015,-97.4706,15.2,11111222 
TCOON,ioos:station:TCOON:003:1,2019-11-23T10:12:00Z,26.8015,-97.4706,15.3,11111222 
TCOON,ioos:station:TCOON:003:1,2019-11-23T11:12:00Z,26.8015,-97.4706,15.5,11111222 